Location: Miss�
(46.9484°N, 0.1922°W)
Time: 02:58:27
(UTC+00:00)

CZ-2C R/B - Pass Details

Date: 02 March 2021
Orbit: 784 x 871 km, 98.2° (Epoch: 12 April)

Event Time Altitude Azimuth Distance (km) Brightness Sun altitude
Rises 18:19:30 0° 22° (NNE) 3,434 5.6 -6.2°
Reaches altitude 10° 18:22:12 10° 32° (NNE) 2,481 4.8 -6.6°
Maximum altitude 18:27:02 31° 94° (E) 1,435 3.4 -7.5°
Drops below altitude 10° 18:31:44 10° 155° (SSE) 2,414 4.9 -8.3°
Sets 18:34:19 0° 166° (SSE) 3,327 5.7 -8.7°
